小惑星A/2021 X2

A/2021 X2

English version
Home page
Updated on March 7, 2023

---------------------------------------------------------------------

・ プロフィール

発見日 2021年12月1日
発見光度 21.6等
発見者 Kitt Peak-Bok

・ 軌道要素

Epoch 2023 Feb. 25.0 TT = JDT 2460000.5
T 2022 July 8.07894 TT                                  Rudenko
q   2.9943043            (2000.0)            P               Q
z  -0.0003530      Peri.  193.28287     +0.76762088     +0.38583583
 +/-0.0000016      Node   228.81930     +0.63242371     -0.32654169
e   1.0010571      Incl.  137.16073     +0.10391547     -0.86284485
H   16.0
>From 93 observations 2021 Oct. 30-2022 Nov. 23, mean residual 0".4.

・ 光度変化

        H = 15.0  G = 0.15

---------------------------------------------------------------------

軌道要素はM.P.E.C. 2022-X67に掲載されたものです。
光度グラフはComet for Windowsで作成したものです。

---------------------------------------------------------------------

Copyright(C) Seiichi Yoshida (comet@aerith.net). All rights reserved.